Location: Newark
(7.0858°N, 171.3717°E)
Time: 02:26:53
(UTC+00:00)

Transit 4A - Pass Details

Date: 04 December 2020
Orbit: 864 x 980 km, 66.8° (Epoch: 20 January)

Event Time Altitude Azimuth Distance (km) Brightness Sun altitude
Rises 18:42:58 0° 224° (SW) 3,558 10.7 1.4°
Reaches altitude 10° 18:45:50 10° 236° (SW) 2,635 10.0 2.1°
Maximum altitude 18:50:55 27° 292° (WNW) 1,724 8.8 3.2°
Drops below altitude 10° 18:56:08 10° 349° (NNW) 2,692 10.0 4.4°
Sets 18:59:07 0° 0° (N) 3,650 10.8 5.1°
